カタログに戻る

COSMOS 2064

運用中軍事LEO
NORAD 20549·PAYLOAD·🇷🇺 Russia

打ち上げ Apr 6, 1990 から Plesetsk Cosmodrome

Loading…

次のパス (今後24時間)

TLE

最新Source: Space-Track

元期: Sep 14, 2026, 09:11 UTC

1 20549U 90029A   26257.38301948 -.00000027  00000-0 -76843-4 0  9991
2 20549  73.9786 245.7600 0017723 243.5243 268.6932 12.47226933659228

AllMySatでCOSMOS 2064をリアルタイム追跡

Download on the App Store